星链-3859 (STARLINK-3859 )

导读 | 星芒AI

STARLINK-3859 是 SpaceX Starlink 卫星互联网项目中的一颗低轨通信卫星。它属于 Starlink 群体部署的一部分,旨在为全球用户提供高速、低延迟的互联网服务。该卫星采用可重复使用设计,配备先进通信设备,运行于约 550 公里高度的近地轨道。作为 Starlink 计划的组成部分,STARLINK-3859 有助于扩大网络覆盖范围,提升连接质量,特别是在偏远和网络基础设施薄弱的地区。

基本信息
目录编号:
52470
目录名称:
STARLINK-3859
国际标识:
2022-049V
轨道中心:
EARTH
卫星名称:
星链-3859
卫星全名:
星链-3859 (STARLINK-3859 )
卫星状态:
在轨 (已飞行1325 天)
发射日期:
2022-05-06 UTC
国别 :
美国 (US)
星等 :
--
轨道信息
数据来源 国际轨道数据
星历时间: 2025-12-20T19:39:54+0800
15小时前
查看轨道信息
半长轴: 6917.894km
偏心率: 0.0001279
轨道倾角: 53.218°
近地点辐角 85.946°
升交点赤经 54.680°
平近点角 274.168°
近地点: 538.872km
远地点: 540.642km
周期: 95.438分钟
每日圈数: 15.088358
详细信息
固有亮度:
5
最大亮度:
2.5
卫星平台:
Starlink v1.5
覆盖范围:
全球
运营商:
太空探索技术公司
运营商所在国:
美国
制造商(研发单位):
太空探索技术公司
制造商所在国:
美国
使用方式:
暂无
卫星简介
星链(Starlink)计划是由太空探索技术公司(SpaceX)提出的一个巨型低轨卫星互联网星座项目,计划在2019年至2024年间在太空搭建由约1.2万颗卫星组成的“星链”网络,其中1584颗将部署在地球上空550千米处的近地轨道,并从2020年开始工作。该卫星仍在工作。
2D轨道图
3D轨道图
轨道高度分析图
轨道倾角分析图
轨道综合分析图
查看轨道综合分析图